Meteo pe oră la Aaruti

Astăzi, 14 Iunie, Luni

Timp Temperatura Precipitaţii Vânt Presiune Umiditate
00:00 +12°C° 0 mm 2 m/s 723 mmHg 89%
01:00 +11°C° 0 mm 1 m/s 723 mmHg 92%
02:00 +11°C° 0 mm 1 m/s 723 mmHg 91%
03:00 +10°C° 0 mm 1 m/s 722 mmHg 91%
04:00 +10°C° 0 mm 1 m/s 722 mmHg 91%
05:00 +11°C° 0 mm 1 m/s 722 mmHg 85%
06:00 +13°C° 0 mm 1 m/s 722 mmHg 80%
07:00 +14°C° 0 mm 1 m/s 723 mmHg 74%
08:00 +16°C° 0 mm 1 m/s 722 mmHg 67%
09:00 +19°C° 0 mm 2 m/s 722 mmHg 60%
10:00 +21°C° 0 mm 2 m/s 722 mmHg 53%
11:00 +23°C° 0 mm 2 m/s 722 mmHg 49%
12:00 +25°C° 0 mm 2 m/s 722 mmHg 44%
13:00 +26°C° 0 mm 2 m/s 721 mmHg 40%
14:00 +27°C° 0 mm 2 m/s 721 mmHg 40%
15:00 +27°C° 0 mm 2 m/s 721 mmHg 41%
16:00 +27°C° 0 mm 2 m/s 721 mmHg 41%
17:00 +26°C° 0 mm 2 m/s 720 mmHg 52%
18:00 +24°C° 0 mm 2 m/s 720 mmHg 62%
19:00 +23°C° 0 mm 1 m/s 720 mmHg 73%
20:00 +21°C° 0 mm 1 m/s 720 mmHg 79%
21:00 +19°C° 0 mm 1 m/s 720 mmHg 85%
22:00 +16°C° 0 mm 1 m/s 720 mmHg 90%
23:00 +15°C° 0 mm 1 m/s 720 mmHg 91%

Mâine, 15 Iunie, Marţi

Timp Temperatura Precipitaţii Vânt Presiune Umiditate
00:00 +15°C° 0 mm 1 m/s 720 mmHg 92%
01:00 +13°C° 0 mm 0 m/s 720 mmHg 93%
02:00 +13°C° 0 mm 0 m/s 720 mmHg 93%
03:00 +12°C° 0 mm 0 m/s 720 mmHg 94%
04:00 +12°C° 0 mm 0 m/s 720 mmHg 94%
05:00 +13°C° 0 mm 0 m/s 720 mmHg 90%
06:00 +15°C° 0 mm 0 m/s 720 mmHg 85%
07:00 +16°C° 0 mm 0 m/s 721 mmHg 81%
08:00 +19°C° 0 mm 0 m/s 721 mmHg 72%
09:00 +21°C° 0 mm 0 m/s 721 mmHg 64%
10:00 +23°C° 0 mm 0 m/s 720 mmHg 55%
11:00 +26°C° 0 mm 1 m/s 720 mmHg 50%
12:00 +28°C° 0 mm 1 m/s 720 mmHg 45%
13:00 +29°C° 0 mm 1 m/s 720 mmHg 40%
14:00 +29°C° 0 mm 1 m/s 720 mmHg 41%
15:00 +29°C° 0 mm 1 m/s 720 mmHg 41%
16:00 +29°C° 0 mm 1 m/s 720 mmHg 42%
17:00 +27°C° 0 mm 1 m/s 720 mmHg 53%
18:00 +25°C° 0 mm 1 m/s 720 mmHg 63%
19:00 +24°C° 0 mm 1 m/s 719 mmHg 74%
20:00 +22°C° 0 mm 1 m/s 719 mmHg 79%
21:00 +20°C° 0 mm 1 m/s 719 mmHg 84%
22:00 +18°C° 0 mm 1 m/s 719 mmHg 89%
23:00 +18°C° 0 mm 1 m/s 719 mmHg 90%

Poimâine, 16 Iunie, Miercuri

Timp Temperatura Precipitaţii Vânt Presiune Umiditate
00:00 +16°C° 0 mm 1 m/s 719 mmHg 90%
01:00 +16°C° 0 mm 1 m/s 719 mmHg 90%
02:00 +15°C° 0 mm 1 m/s 719 mmHg 91%
03:00 +15°C° 0 mm 1 m/s 719 mmHg 91%
04:00 +14°C° 0 mm 1 m/s 718 mmHg 91%
05:00 +15°C° 0 mm 0 m/s 719 mmHg 87%
06:00 +16°C° 0 mm 0 m/s 719 mmHg 83%
07:00 +17°C° 0 mm 0 m/s 719 mmHg 79%
08:00 +19°C° 0 mm 0 m/s 719 mmHg 72%
09:00 +23°C° 0 mm 1 m/s 719 mmHg 65%
10:00 +25°C° 0 mm 1 m/s 719 mmHg 58%
11:00 +26°C° 0 mm 1 m/s 718 mmHg 53%
12:00 +28°C° 0 mm 1 m/s 718 mmHg 48%
13:00 +29°C° 0 mm 1 m/s 718 mmHg 43%
14:00 +29°C° 0 mm 1 m/s 718 mmHg 42%
15:00 +29°C° 0 mm 1 m/s 718 mmHg 41%
16:00 +30°C° 0 mm 1 m/s 717 mmHg 40%
17:00 +28°C° 0 mm 1 m/s 717 mmHg 49%
18:00 +27°C° 0 mm 1 m/s 717 mmHg 59%
19:00 +25°C° 0 mm 1 m/s 717 mmHg 69%
20:00 +23°C° 0 mm 1 m/s 717 mmHg 75%
21:00 +21°C° 0 mm 1 m/s 716 mmHg 81%
22:00 +19°C° 0 mm 1 m/s 716 mmHg 86%
23:00 +19°C° 0 mm 1 m/s 716 mmHg 87%

17 Iunie, Joi

Timp Temperatura Precipitaţii Vânt Presiune Umiditate
00:00 +18°C° 0 mm 1 m/s 716 mmHg 87%
01:00 +18°C° 0 mm 1 m/s 716 mmHg 88%
02:00 +16°C° 0 mm 1 m/s 716 mmHg 88%
03:00 +15°C° 0 mm 0 m/s 716 mmHg 89%
04:00 +15°C° 0 mm 0 m/s 716 mmHg 90%
05:00 +16°C° 0 mm 0 m/s 717 mmHg 85%
06:00 +17°C° 0 mm 0 m/s 717 mmHg 81%
07:00 +19°C° 0 mm 0 m/s 717 mmHg 77%
08:00 +21°C° 0 mm 0 m/s 717 mmHg 69%
09:00 +23°C° 0 mm 0 m/s 717 mmHg 61%
10:00 +26°C° 0 mm 0 m/s 717 mmHg 54%
11:00 +29°C° 0 mm 1 m/s 717 mmHg 49%
12:00 +30°C° 0 mm 1 m/s 717 mmHg 45%
13:00 +31°C° 0 mm 1 m/s 717 mmHg 41%
14:00 +31°C° 0.1 mm 2 m/s 716 mmHg 42%
15:00 +30°C° 0.1 mm 2 m/s 716 mmHg 44%
16:00 +30°C° 0.1 mm 2 m/s 716 mmHg 46%
17:00 +28°C° 0.2 mm 2 m/s 716 mmHg 57%
18:00 +26°C° 0.2 mm 2 m/s 716 mmHg 69%
19:00 +24°C° 0.2 mm 1 m/s 716 mmHg 80%
20:00 +22°C° 0.1 mm 1 m/s 716 mmHg 83%
21:00 +21°C° 0.1 mm 1 m/s 716 mmHg 87%
22:00 +20°C° 0.1 mm 1 m/s 716 mmHg 91%
23:00 +19°C° 0.1 mm 1 m/s 716 mmHg 91%

18 Iunie, Vineri

Timp Temperatura Precipitaţii Vânt Presiune Umiditate
00:00 +19°C° 0.1 mm 1 m/s 716 mmHg 92%
01:00 +19°C° 0.1 mm 1 m/s 716 mmHg 93%
02:00 +19°C° 0.8 mm 1 m/s 716 mmHg 94%
03:00 +17°C° 0.8 mm 2 m/s 717 mmHg 96%
04:00 +17°C° 0.8 mm 2 m/s 717 mmHg 97%
05:00 +18°C° 0.2 mm 2 m/s 718 mmHg 96%
06:00 +18°C° 0.2 mm 2 m/s 718 mmHg 96%
07:00 +20°C° 0.2 mm 1 m/s 718 mmHg 95%
08:00 +21°C° 0 mm 1 m/s 718 mmHg 87%
09:00 +23°C° 0 mm 1 m/s 718 mmHg 79%
10:00 +24°C° 0 mm 1 m/s 718 mmHg 70%
11:00 +25°C° 0.1 mm 1 m/s 718 mmHg 66%
12:00 +27°C° 0.1 mm 1 m/s 718 mmHg 61%
13:00 +28°C° 0.1 mm 1 m/s 718 mmHg 57%
14:00 +28°C° 0.4 mm 1 m/s 718 mmHg 59%
15:00 +28°C° 0.4 mm 1 m/s 718 mmHg 61%
16:00 +27°C° 0.4 mm 1 m/s 718 mmHg 63%
17:00 +26°C° 0.5 mm 1 m/s 718 mmHg 70%
18:00 +25°C° 0.5 mm 1 m/s 718 mmHg 77%
19:00 +24°C° 0.5 mm 1 m/s 718 mmHg 84%
20:00 +23°C° 0.1 mm 1 m/s 719 mmHg 87%
21:00 +21°C° 0.1 mm 1 m/s 719 mmHg 90%
22:00 +20°C° 0.1 mm 1 m/s 719 mmHg 92%
23:00 +19°C° 0 mm 1 m/s 719 mmHg 93%

19 Iunie, Sâmbătă

Timp Temperatura Precipitaţii Vânt Presiune Umiditate
00:00 +19°C° 0 mm 1 m/s 719 mmHg 93%
01:00 +19°C° 0 mm 1 m/s 719 mmHg 94%
02:00 +18°C° 0 mm 1 m/s 719 mmHg 94%
03:00 +18°C° 0 mm 1 m/s 719 mmHg 94%
04:00 +16°C° 0 mm 0 m/s 719 mmHg 94%
05:00 +17°C° 0 mm 0 m/s 720 mmHg 93%
06:00 +18°C° 0 mm 0 m/s 720 mmHg 91%
07:00 +19°C° 0 mm 0 m/s 720 mmHg 90%
08:00 +21°C° 0 mm 0 m/s 720 mmHg 80%
09:00 +23°C° 0 mm 0 m/s 720 mmHg 70%
10:00 +27°C° 0 mm 1 m/s 720 mmHg 61%
11:00 +28°C° 0 mm 1 m/s 720 mmHg 55%
12:00 +29°C° 0 mm 2 m/s 719 mmHg 50%
13:00 +30°C° 0 mm 2 m/s 719 mmHg 45%
14:00 +31°C° 0 mm 2 m/s 719 mmHg 45%
15:00 +31°C° 0 mm 2 m/s 718 mmHg 45%
16:00 +31°C° 0 mm 3 m/s 718 mmHg 45%
17:00 +29°C° 0 mm 2 m/s 718 mmHg 54%
18:00 +28°C° 0 mm 2 m/s 718 mmHg 64%
19:00 +26°C° 0 mm 2 m/s 717 mmHg 74%
20:00 +25°C° 0 mm 2 m/s 717 mmHg 79%
21:00 +23°C° 0 mm 1 m/s 717 mmHg 84%
22:00 +22°C° 0 mm 1 m/s 717 mmHg 89%
23:00 +22°C° 0 mm 1 m/s 716 mmHg 90%
Arată mai mult

Formular de consimțământ

Meteoprog și furnizorii noștri de servicii pot stoca și accesa date personale, precum cookies, identificatori de dispozitiv sau alte tehnologii similare pe dispozitivul dumneavoastră și procesa astfel de date pentru a personaliza conținutul și reclamele, dar și pentru a oferi caracteristici de social media și pentru a analiza traficul.

  • Stocarea și/sau accesarea informațiilor pe dispozitivul dumneavoastră

    Cookies, identificatori de dispozitiv sau alte informații pot fi stocate sau accesate pe dispozitiv în scopurile indicate mai sus.

  • Reclame și conținut personalizat, evaluarea reclamelor și a conținutului, informații despre audiențe și dezvoltarea produselor

    Reclamele și conținutul pot fi personalizate pe baza unui profil. Pot fi adăugate date suplimentare pentru a personaliza mai bine reclamele și conținutul. Performanța reclamelor și conținutului poate fi măsurată. Pot fi obținute informații despre utilizatorii care au văzut reclamele și conținutul. Aceste date pot fi utilizate pentru a dezvolta sau îmbunătăți experiența utilizatorilor, sistemele și software-ul.

Dând clic pe ‘Sunt de acord’, permiteți utilizarea cookie-urilor menționate, a identificatorilor de dispozitiv, balizelor web sau altor tehnologii similare. Setările pot fi modificate din browser-ul dispozitivului dumneavoastră.

În anumite scopuri, interesele legitime pot prima asupra consimțământului. Puteți citi mai multe informații în acest sens în Politica privind Confidențialitatea Datelor și Cookie.